State College, PA

5:11 AM EST on February 21, 2018 (GMT -0500)
University Park

Weather History for KUNV - February, 2014

Change the Weather History Date:

Wednesday, February 26, 2014

  Actual Average Record
Temperature  
Mean Temperature 18 °F -  
Max Temperature 23 °F 38 °F 68 °F (1976)
Min Temperature 12 °F 21 °F -1 °F (1963)
Degree Days  
Heating Degree Days 48    
Moisture  
Dew Point 5 °F    
Average Humidity 56    
Maximum Humidity 77    
Minimum Humidity 26    
Precipitation  
Precipitation 0.00 in - - ()
Sea Level Pressure  
Sea Level Pressure 29.84 in    
Wind  
Wind Speed 7 mph (West)    
Max Wind Speed 20 mph    
Max Gust Speed 29 mph    
Visibility 9 miles    
Events Snow    
Averages and records for this station are not official NWS values.
T = Trace of Precipitation, MM = Missing Value Source: NWS Daily Summary

Daily Weather History Graph

Daily Weather History Graph

Search for Another Location

Airport or City:

Trip Planner

Search our weather history database for the weather conditions in past years. The results will help you decide how hot, cold, wet, or windy it might be!

Date:

Astronomy

Feb. 26, 2014 Rise Set
Actual Time 6:50 AM EST 5:59 PM EST
Civil Twilight 6:22 AM EST 6:26 PM EST
Nautical Twilight 5:50 AM EST 6:58 PM EST
Astronomical Twilight 5:18 AM EST 7:30 PM EST
Moon 4:35 AM EST (2/26) 3:10 PM EST (2/26)
Length of Visible Light 12h 04m
Length of Day
11h 09m
Waning Crescent, 10% of the Moon is Illuminated
Feb 26
Waning Crescent
Mar 1
New
Mar 8
First Quarter
Mar 16
Full
Mar 23
Last Quarter

Hourly Weather History & Observations

Time (EST) Temp. Windchill Dew Point Humidity Pressure Visibility Wind Dir Wind Speed Gust Speed Precip Events Conditions
12:15 AM 22.5 °F 17.8 °F 15.8 °F 76% 29.91 in 7.0 mi SW 3.5 mph - N/A Snow Light Snow
12:35 AM 22.5 °F 15.1 °F 15.4 °F 74% 29.90 in 10.0 mi SSW 5.8 mph - N/A   Overcast
12:55 AM 23.0 °F 13.1 °F 14.7 °F 71% 29.89 in 10.0 mi SW 9.2 mph - N/A Snow Light Snow
1:15 AM 22.8 °F 15.5 °F 14.5 °F 71% 29.88 in 10.0 mi SW 5.8 mph - N/A   Overcast
1:35 AM 22.8 °F 14.5 °F 14.0 °F 69% 29.87 in 10.0 mi SW 6.9 mph - N/A   Overcast
1:55 AM 22.6 °F 15.3 °F 14.7 °F 72% 29.86 in 4.0 mi South 5.8 mph - N/A Snow Light Snow
2:15 AM 22.5 °F 15.1 °F 15.8 °F 76% 29.86 in 7.0 mi SSW 5.8 mph - N/A Snow Light Snow
2:35 AM 22.5 °F 15.1 °F 16.2 °F 77% 29.84 in 7.0 mi SSW 5.8 mph - N/A Snow Light Snow
2:55 AM 22.8 °F 15.5 °F 15.6 °F 74% 29.84 in 10.0 mi SW 5.8 mph - N/A   Overcast
3:15 AM 22.8 °F 16.7 °F 15.1 °F 72% 29.83 in 10.0 mi SSW 4.6 mph - N/A   Overcast
3:35 AM 23.0 °F 17.0 °F 14.9 °F 71% 29.83 in 7.0 mi SW 4.6 mph - N/A Snow Light Snow
3:55 AM 22.8 °F 16.7 °F 14.7 °F 71% 29.82 in 10.0 mi SW 4.6 mph - N/A   Overcast
4:15 AM 23.0 °F 14.7 °F 13.5 °F 67% 29.81 in 10.0 mi West 6.9 mph - N/A   Overcast
4:35 AM 23.0 °F 13.9 °F 12.6 °F 64% 29.81 in 10.0 mi WSW 8.1 mph - N/A   Overcast
4:55 AM 22.6 °F 11.3 °F 13.5 °F 68% 29.82 in 3.0 mi NW 11.5 mph - N/A Snow Light Snow
5:15 AM 21.2 °F 7.3 °F 10.8 °F 64% 29.82 in 10.0 mi WNW 16.1 mph 20.7 mph N/A Snow Light Snow
5:35 AM 21.2 °F 9.5 °F 11.3 °F 66% 29.83 in 10.0 mi West 11.5 mph 18.4 mph N/A   Overcast
5:53 AM 21.2 °F 10.9 °F 10.4 °F 63% 29.83 in 10.0 mi West 9.2 mph - N/A   Overcast
5:55 AM 21.2 °F 9.5 °F 10.8 °F 64% 29.83 in 10.0 mi West 11.5 mph - N/A   Overcast
6:15 AM 21.2 °F 12.6 °F 10.9 °F 65% 29.84 in 10.0 mi WSW 6.9 mph - N/A   Overcast
6:35 AM 21.4 °F 9.1 °F 9.3 °F 60% 29.84 in 10.0 mi West 12.7 mph - N/A   Overcast
6:53 AM 21.2 °F 7.8 °F 8.6 °F 58% 29.84 in 5.0 mi West 15.0 mph - N/A Snow Light Snow
7:00 AM 21.2 °F 9.5 °F 8.6 °F 58% 29.84 in 2.0 mi West 11.5 mph 17.3 mph N/A Snow Light Snow
7:20 AM 19.4 °F 7.2 °F 8.6 °F 63% 29.86 in 3.0 mi West 11.5 mph 19.6 mph N/A Snow Light Snow
7:25 AM 19.4 °F 4.5 °F 8.6 °F 63% 29.87 in 1.5 mi West 17.3 mph 28.8 mph N/A Snow Light Snow
7:35 AM 17.6 °F 5.7 °F 8.6 °F 68% 29.88 in 4.0 mi West 10.4 mph 19.6 mph N/A Snow Light Snow
7:53 AM 17.6 °F 5.0 °F 5.0 °F 58% 29.90 in 10.0 mi WNW 11.5 mph 19.6 mph N/A   Overcast
8:53 AM 15.8 °F 6.1 °F 1.4 °F 53% 29.96 in 10.0 mi West 6.9 mph - N/A   Mostly Cloudy
9:53 AM 17.6 °F 6.4 °F -0.4 °F 45% 29.96 in 10.0 mi WNW 9.2 mph 18.4 mph N/A   Mostly Cloudy
10:53 AM 17.6 °F 5.0 °F -5.8 °F 35% 29.95 in 10.0 mi West 11.5 mph 19.6 mph N/A   Scattered Clouds
11:53 AM 19.4 °F 3.6 °F -4.0 °F 36% 29.94 in 10.0 mi West 19.6 mph 25.3 mph N/A   Mostly Cloudy
12:53 PM 17.6 °F 3.7 °F -7.6 °F 32% 29.91 in 10.0 mi WNW 13.8 mph 21.9 mph N/A   Mostly Cloudy
1:53 PM 21.2 °F 10.1 °F -7.6 °F 28% 29.86 in 10.0 mi West 10.4 mph - N/A   Scattered Clouds
2:53 PM 21.2 °F 7.3 °F -9.4 °F 26% 29.85 in 10.0 mi WNW 16.1 mph - N/A   Partly Cloudy
3:53 PM 21.2 °F 11.7 °F -9.4 °F 26% 29.85 in 10.0 mi West 8.1 mph - N/A   Partly Cloudy
4:53 PM 21.2 °F 9.5 °F -9.4 °F 26% 29.82 in 10.0 mi WNW 11.5 mph - N/A   Clear
5:53 PM 19.4 °F 7.2 °F -7.6 °F 30% 29.81 in 10.0 mi West 11.5 mph - N/A   Clear
6:53 PM 17.6 °F 8.2 °F -5.8 °F 35% 29.80 in 10.0 mi WNW 6.9 mph - N/A   Clear
7:53 PM 15.8 °F 7.2 °F -4.0 °F 41% 29.81 in 10.0 mi West 5.8 mph - N/A   Clear
8:53 PM 12.2 °F - -2.2 °F 53% 29.80 in 10.0 mi Calm Calm - N/A   Clear
9:15 PM 13.6 °F - -4.4 °F 45% 29.79 in 10.0 mi Calm Calm - N/A   Clear
9:35 PM 12.9 °F - -4.0 °F 47% 29.79 in 10.0 mi Calm Calm - N/A   Clear
9:55 PM 12.6 °F - -2.4 °F 51% 29.79 in 10.0 mi Calm Calm - N/A   Clear
10:15 PM 13.1 °F - -4.0 °F 47% 29.79 in 10.0 mi Calm Calm - N/A   Scattered Clouds
10:35 PM 12.0 °F - -2.2 °F 53% 29.77 in 10.0 mi Calm Calm - N/A   Clear
10:55 PM 12.6 °F - -2.4 °F 51% 29.77 in 10.0 mi Calm Calm - N/A   Clear
11:15 PM 13.1 °F 7.1 °F -2.0 °F 51% 29.77 in 10.0 mi West 3.5 mph - N/A   Clear
11:35 PM 13.5 °F 7.5 °F -1.7 °F 51% 29.75 in 10.0 mi West 3.5 mph - N/A   Clear
11:55 PM 12.6 °F - -1.3 °F 54% 29.74 in 10.0 mi Calm Calm - N/A   Clear